Flag Weather past 2 weeks in Skopje, Macedonia, Republic of

Now
43 °F

Low clouds.


Feels Like: 43 °F
Forecast: 44 / 58 °F
Wind: No wind

Location: Skopje-Petrovec

Current Time: Nov 28, 2014 at 8:06:17 AM

Latest Report: Nov 28, 2014 at 7:00 AM


Visibility: N/A

Pressure: 30.21 "Hg

Humidity: 93%

Dew point: 41 °F

Location of SkopjeLocation

Historic Weather in Skopje — Graph

°F

Skopje temperature yesterday

Maximum temperature yesterday: 43 °F (at 12:00 PM)
Minimum temperature yesterday: 37 °F (at 3:30 AM)
Average temperature yesterday: 42 °F

Past Weeks' High & Low Weather Summary

 TemperatureHumidityPressure
High61 °F (Nov 13, 11:30 AM)100% (Nov 14, 12:30 AM)30.42 "Hg (Nov 14, 12:30 AM)
Low27 °F (Nov 23, 5:30 AM)43% (Nov 25, 3:00 PM)29.80 "Hg (Nov 13, 2:00 PM)
Average47 °F82%30.12 "Hg
* Reported Nov 13 7:00 AM — Nov 28 7:00 AM, Skopje, Weather by CustomWeather, © 2014

Note: Actual official high and low records may vary slightly from our data, if they occured in-between our weather recording intervals... More about our weather records

Advertising

Skopje weather history for previous 24 hours

 ConditionsComfort  
Time TempWeatherWind HumidityBarometerVisibility
7:00 AM
Nov 28
43 °FLow clouds.No wind93%30.21 "HgN/A
6:30 AM43 °FLow clouds.1 mph93%30.18 "HgN/A
6:00 AM43 °FLow clouds.No wind93%30.18 "HgN/A
5:00 AM43 °FLow clouds.1 mph93%30.18 "HgN/A
4:30 AM43 °FLow clouds.2 mph93%30.18 "HgN/A
4:00 AM43 °FLow clouds.3 mph93%30.18 "HgN/A
3:30 AM43 °FLow clouds.2 mph93%30.18 "HgN/A
3:00 AM43 °FLow clouds.1 mph93%30.18 "HgN/A
2:30 AM43 °FLow clouds.2 mph93%30.18 "HgN/A
2:00 AM43 °FLow clouds.No wind93%30.18 "HgN/A
1:00 AM43 °FOvercast.No wind93%30.18 "HgN/A
12:30 AM43 °FOvercast.No wind93%30.18 "HgN/A
12:00 AM43 °FOvercast.1 mph93%30.18 "HgN/A
11:30 PM
Nov 27
43 °FOvercast.2 mph87%30.18 "HgN/A
11:00 PM43 °FOvercast.2 mph93%30.18 "HgN/A
10:30 PM43 °FOvercast.3 mph87%30.18 "HgN/A
10:00 PM43 °FOvercast.2 mph87%30.18 "HgN/A
9:30 PM43 °FOvercast.No wind87%30.18 "HgN/A
9:00 PM43 °FOvercast.1 mph87%30.18 "HgN/A
8:30 PM43 °FOvercast.1 mph87%30.18 "HgN/A
8:00 PM43 °FOvercast.No wind87%30.15 "HgN/A
7:30 PM43 °FOvercast.No wind87%30.15 "HgN/A
7:00 PM43 °FOvercast.1 mph87%30.15 "HgN/A
6:30 PM43 °FOvercast.1 mph87%30.15 "HgN/A
6:00 PM43 °FOvercast.3 mph87%30.15 "HgN/A
5:30 PM43 °FOvercast.3 mph87%30.15 "HgN/A
5:00 PM43 °FOvercast.3 mph87%30.15 "HgN/A
4:30 PM43 °FOvercast.2 mph87%30.15 "HgN/A
4:00 PM43 °FDrizzle. Overcast.3 mph87%30.12 "HgN/A
3:30 PM43 °FOvercast.1 mph87%30.12 "HgN/A
3:00 PM43 °FOvercast.3 mph87%30.12 "HgN/A
2:30 PM43 °FDrizzle. Overcast.3 mph81%30.12 "HgN/A
2:00 PM43 °FOvercast.3 mph87%30.12 "HgN/A
1:30 PM43 °FOvercast.2 mph87%30.15 "HgN/A
1:00 PM43 °FDrizzle. Overcast.3 mph87%30.15 "HgN/A
12:30 PM43 °FDrizzle. Overcast.5 mph81%30.15 "HgN/A
12:00 PM43 °FOvercast.3 mph81%30.15 "HgN/A
11:30 AM41 °FOvercast.2 mph87%30.15 "HgN/A
11:00 AM41 °FOvercast.2 mph87%30.15 "HgN/A
10:30 AM41 °FOvercast.2 mph87%30.15 "HgN/A
10:00 AM41 °FOvercast.3 mph87%30.18 "HgN/A
9:30 AM41 °FOvercast.3 mph87%30.18 "HgN/A
9:00 AM41 °FOvercast.3 mph87%30.18 "HgN/A
8:30 AM41 °FOvercast.3 mph87%30.15 "HgN/A
8:00 AM41 °FOvercast.2 mph87%30.15 "HgN/A
Weather by CustomWeather, © 2014

See weather overviewHow to use our weather pages